Flag for Canada Weather past 2 weeks in Burlington, Ontario, Canada

Now
66 °F

Mild.


Feels Like: 66 °F
Forecast: 52 / 76 °F
Wind: 2 mph from Southeast

Location: Burlington Piers

Current Time: May 24, 2015 at 1:25:17 PM

Latest Report: May 24, 2015 at 12:00 PM


Visibility: N/A

Pressure: 30.21 "Hg

Humidity: 46%

Dew point: 44 °F

Location of BurlingtonLocation

Historic Weather in Burlington — Graph

°F

Burlington temperature yesterday

Maximum temperature yesterday: 70 °F (at 6:00 PM)
Minimum temperature yesterday: 42 °F (at 7:00 AM)
Average temperature yesterday: 55 °F

Past Weeks' High & Low Weather Summary

 TemperatureHumidityPressure
High80 °F (May 18, 7:00 PM)100% (May 10, 2:00 PM)30.49 "Hg (May 10, 2:00 PM)
Low41 °F (May 20, 5:00 AM)19% (May 21, 5:00 PM)29.75 "Hg (May 12, 1:00 AM)
Average54 °F65%30.09 "Hg
* Reported May 9 12:00 Noon — May 24 12:00 Noon, Burlington, Weather by CustomWeather, © 2015

Note: Actual official high and low records may vary slightly from our data, if they occured in-between our weather recording intervals... More about our weather records

Advertising

Burlington weather history for previous 24 hours

 ConditionsComfort  
Time TempWeatherWind HumidityBarometerVisibility
12:00 PM
Sun, May 24
66 °FMild.2 mph46%30.21 "HgN/A
11:00 AM70 °FMild.5 mph37%30.22 "HgN/A
10:00 AM65 °FMild.5 mph42%30.24 "HgN/A
9:00 AM60 °FRefreshingly cool.5 mph49%30.26 "HgN/A
8:00 AM58 °FRefreshingly cool.7 mph49%30.27 "HgN/A
7:00 AM56 °FRefreshingly cool.7 mph45%30.27 "HgN/A
6:00 AM55 °FRefreshingly cool.8 mph40%30.25 "HgN/A
5:00 AM55 °FRefreshingly cool.9 mph39%30.24 "HgN/A
4:00 AM55 °FRefreshingly cool.6 mph41%30.24 "HgN/A
3:00 AM56 °FRefreshingly cool.7 mph32%30.24 "HgN/A
2:00 AM56 °FRefreshingly cool.6 mph32%30.26 "HgN/A
1:00 AM57 °FRefreshingly cool.3 mph33%30.26 "HgN/A
12:00 AM59 °FRefreshingly cool.5 mph30%30.26 "HgN/A
11:00 PM
Sat, May 23
61 °FRefreshingly cool.3 mph31%30.25 "HgN/A
10:00 PM63 °FMild.5 mph30%30.26 "HgN/A
9:00 PM65 °FMild.7 mph26%30.25 "HgN/A
7:00 PM67 °FMild.12 mph30%30.25 "HgN/A
6:00 PM70 °FMild.6 mph25%30.27 "HgN/A
5:00 PM68 °FMild.7 mph28%30.29 "HgN/A
4:00 PM67 °FMild.7 mph27%30.31 "HgN/A
3:00 PM66 °FMild.6 mph23%30.33 "HgN/A
2:00 PM64 °FMild.7 mph23%30.35 "HgN/A
1:00 PM62 °FRefreshingly cool.7 mph26%30.37 "HgN/A
Weather by CustomWeather, © 2015

See weather overviewHow to use our weather pages